{"data":{"norad_id":62751,"intl_designator":"2025-014S","name":"STARLINK-32759","alt_names":[],"object_type":"PAYLOAD","status":"ACTIVE","operator":null,"country":"US","launch_date":"2025-01-21","launch_site_code":"AFETR","launch_vehicle":null,"mission":null,"orbit_class":"UNKNOWN","rcs_meters":null,"size_class":null,"mass_kg":null,"dimensions":null,"purposes":["comms"],"wikipedia_slug":null,"has_3d_model":false,"image_url":null,"decayed_at":null,"tle_current":{"epoch":"2026-05-25T04:29:10.574016Z","epoch_age_seconds":62939,"freshness":"FRESH","line1":"1 62751U 25014S   26145.18692794  .00022602  00000+0  82777-3 0  9992","line2":"2 62751  42.9995  86.0931 0001027 258.9489 101.1247 15.27602811 74913","mean_motion":15.27602811,"eccentricity":0.0001027,"inclination_deg":42.9995,"raan_deg":86.0931,"arg_perigee_deg":258.9489,"mean_anomaly_deg":101.1247,"bstar":0.00082777,"rev_number":7491,"period_min":94.265341071044,"perigee_km":482.27615575211,"apogee_km":483.6854293467,"semimajor_km":6861.1177925494,"source":"CELESTRAK","updated_at":"2026-05-25T13:38:19.741608Z"}}}